Flag for Canada Weather past 2 weeks in Taloyoak, Nunavut Territory, Canada

Now
-47 °F

Snow flurries. Fog.


Feels Like: -70 °F
Forecast: -40 / -34 °F
Wind: 7 mph from North

Location: Spence Bay Airport

Current Time: Feb 1, 2015 at 5:21:06 PM

Latest Report: Feb 1, 2015 at 4:00 PM


Visibility: 15 mi

Pressure: 30.21 "Hg

Humidity: 63%

Dew point: -54 °F

Location of TaloyoakLocation

Historic Weather in Taloyoak — Graph

°F

Taloyoak temperature yesterday

Maximum temperature yesterday: -35 °F (at 12:00 AM)
Minimum temperature yesterday: -42 °F (at 4:00 PM)
Average temperature yesterday: -39 °F

Past Weeks' High & Low Weather Summary

 TemperatureHumidityPressure
High-20 °F (Jan 30, 6:00 AM)75% (Jan 26, 5:00 AM)30.21 "Hg (Jan 26, 5:00 AM)
Low-47 °F (Feb 1, 4:00 PM)57% (Feb 1, 3:00 AM)29.53 "Hg (Jan 26, 8:00 PM)
Average-33 °F67%29.95 "Hg
* Reported Jan 17 4:00 PM — Feb 1 4:00 PM, Taloyoak, Weather by CustomWeather, © 2014

Note: Actual official high and low records may vary slightly from our data, if they occured in-between our weather recording intervals... More about our weather records

Advertising

Taloyoak weather history for previous 24 hours

 ConditionsComfort  
Time TempWeatherWind HumidityBarometerVisibility
4:00 PM
Feb 1
-47 °FSnow flurries. Fog.7 mph63%30.21 "Hg15 mi
3:00 PM-45 °FSnow flurries. Fog.8 mph64%30.21 "Hg15 mi
2:00 PM-45 °FSnow flurries. Fog.6 mph57%30.21 "Hg12 mi
1:00 PM-45 °FSnow flurries. Partly sunny.2 mph64%30.20 "Hg8 mi
12:00 PM-45 °FSnow flurries. Light fog.5 mph57%30.20 "Hg12 mi
11:00 AM-45 °FSnow flurries. Fog.No wind64%30.20 "Hg15 mi
10:00 AM-45 °FSnow flurries. Fog.5 mph64%30.20 "Hg15 mi
9:00 AM-45 °FSnow flurries. Fog.2 mph64%30.20 "Hg12 mi
8:00 AM-45 °FSnow flurries. Fog.6 mph64%30.20 "Hg15 mi
7:00 AM-44 °FSnow flurries. Fog.7 mph64%30.20 "Hg15 mi
6:00 AM-45 °FSnow flurries. Fog.7 mph64%30.20 "Hg12 mi
5:00 AM-44 °FSnow flurries. Fog.8 mph57%30.20 "Hg12 mi
4:00 AM-44 °FSnow flurries. Fog.8 mph57%30.19 "Hg12 mi
3:00 AM-44 °FSnow flurries. Fog.9 mph57%30.18 "Hg12 mi
2:00 AM-44 °FSnow flurries. Fog.9 mph64%30.18 "Hg12 mi
1:00 AM-42 °FSnow flurries. Fog.12 mph65%30.17 "Hg12 mi
12:00 AM-42 °FSnow flurries. Clear.10 mph65%30.16 "Hg12 mi
11:00 PM
Jan 31
-42 °FSnow flurries. Fog.12 mph65%30.16 "Hg12 mi
10:00 PM-42 °FSnow flurries. Fog.12 mph65%30.16 "Hg12 mi
9:00 PM-42 °FSnow flurries. Fog.8 mph65%30.16 "Hg12 mi
8:00 PM-42 °FSnow flurries. Fog.8 mph65%30.15 "Hg12 mi
7:00 PM-42 °FSnow flurries. Fog.8 mph65%30.15 "Hg12 mi
6:00 PM-42 °FSnow flurries. Fog.7 mph65%30.15 "Hg15 mi
5:00 PM-42 °FSnow flurries. Fog.9 mph65%30.15 "Hg15 mi
Weather by CustomWeather, © 2014

See weather overviewHow to use our weather pages